User: anonymous
Location: Unspecified
(0.0000°N, 0.0000°E)
Time: 18:11:56
(UTC+02:00)
Language:

AO-40 - Orbit

View from above orbital plane
View from above orbital plane
View from above satellite
View from above satellite

Ground track
Ground track

The orbit data is extracted from the following two-line orbital elements,

1 26609U 00072B   14240.58721473  .00000000  00000-0  10000-3 0   153
2 26609 008.3648 036.2976 7941257 143.8784 314.0150 01.25582747 63483
Epoch (UTC): 28 August 2014 14:05:35
Eccentricity: 0.7941257
inclination: 8.3648°
perigee height: 1093 km
apogee height: 58729 km
right ascension of ascending node: 36.2976°
argument of perigee: 143.8784°
revolutions per day: 1.25582747
mean anomaly at epoch: 314.0150°
orbit number at epoch: 6348

The dashed part of the orbit path shows where the satellite is in the earth's shadow,  

DLR